• en France
  • Liste des pays
  • À 7 jours
  • Température de l'eau
  • Carte satellitaire
  • Carte météo
  • Widgets météo
  • user-avatar
    Se connecter

    Météo par heure à Childa

    Ce jour, 17 Octobre, Mercredi

    Heure Température Précipitation Vent Pression Humidité
    00:00 +9°C° 0 mm 1 m/s 644 mmHg 84%
    01:00 +8°C° 0 mm 1 m/s 644 mmHg 83%
    02:00 +8°C° 0 mm 1 m/s 644 mmHg 82%
    03:00 +8°C° 0 mm 1 m/s 644 mmHg 80%
    04:00 +8°C° 0 mm 1 m/s 644 mmHg 77%
    05:00 +8°C° 0 mm 1 m/s 644 mmHg 74%
    06:00 +8°C° 0 mm 1 m/s 644 mmHg 71%
    07:00 +10°C° 0 mm 1 m/s 644 mmHg 63%
    08:00 +12°C° 0 mm 1 m/s 645 mmHg 55%
    09:00 +14°C° 0 mm 1 m/s 646 mmHg 47%
    10:00 +15°C° 0 mm 1 m/s 646 mmHg 46%
    11:00 +16°C° 0 mm 2 m/s 646 mmHg 44%
    12:00 +17°C° 0 mm 2 m/s 646 mmHg 42%
    13:00 +17°C° 0 mm 2 m/s 645 mmHg 44%
    14:00 +17°C° 0 mm 2 m/s 645 mmHg 46%
    15:00 +16°C° 0 mm 2 m/s 645 mmHg 49%
    16:00 +14°C° 0 mm 2 m/s 644 mmHg 60%
    17:00 +12°C° 0 mm 1 m/s 644 mmHg 70%
    18:00 +10°C° 0 mm 1 m/s 643 mmHg 81%
    19:00 +10°C° 0 mm 1 m/s 643 mmHg 80%
    20:00 +10°C° 0 mm 1 m/s 643 mmHg 78%
    21:00 +9°C° 0 mm 1 m/s 643 mmHg 76%
    22:00 +9°C° 0 mm 1 m/s 643 mmHg 72%
    23:00 +9°C° 0 mm 1 m/s 642 mmHg 68%

    Demain, 18 Octobre, Jeudi

    Heure Température Précipitation Vent Pression Humidité
    00:00 +9°C° 0 mm 1 m/s 642 mmHg 64%
    01:00 +9°C° 0 mm 1 m/s 642 mmHg 60%
    02:00 +9°C° 0 mm 1 m/s 642 mmHg 56%
    03:00 +9°C° 0 mm 1 m/s 642 mmHg 52%
    04:00 +8°C° 0 mm 1 m/s 642 mmHg 46%
    05:00 +8°C° 0 mm 1 m/s 641 mmHg 40%
    06:00 +8°C° 0 mm 1 m/s 641 mmHg 34%
    07:00 +11°C° 0 mm 1 m/s 642 mmHg 30%
    08:00 +13°C° 0 mm 1 m/s 643 mmHg 27%
    09:00 +15°C° 0 mm 1 m/s 644 mmHg 23%
    10:00 +16°C° 0 mm 1 m/s 644 mmHg 24%
    11:00 +18°C° 0 mm 1 m/s 644 mmHg 24%
    12:00 +18°C° 0 mm 2 m/s 644 mmHg 24%
    13:00 +18°C° 0 mm 2 m/s 644 mmHg 28%
    14:00 +18°C° 0 mm 2 m/s 644 mmHg 31%
    15:00 +17°C° 0 mm 2 m/s 644 mmHg 34%
    16:00 +15°C° 0 mm 1 m/s 643 mmHg 44%
    17:00 +13°C° 0 mm 1 m/s 642 mmHg 55%
    18:00 +11°C° 0 mm 1 m/s 642 mmHg 66%
    19:00 +10°C° 0 mm 1 m/s 642 mmHg 63%
    20:00 +10°C° 0 mm 1 m/s 642 mmHg 61%
    21:00 +10°C° 0 mm 1 m/s 642 mmHg 59%
    22:00 +9°C° 0 mm 1 m/s 642 mmHg 59%
    23:00 +9°C° 0 mm 1 m/s 642 mmHg 59%

    Après-demain, 19 Octobre, Vendredi

    Heure Température Précipitation Vent Pression Humidité
    00:00 +9°C° 0 mm 1 m/s 642 mmHg 59%
    01:00 +8°C° 0 mm 2 m/s 641 mmHg 61%
    02:00 +7°C° 0 mm 2 m/s 641 mmHg 63%
    03:00 +7°C° 0 mm 2 m/s 641 mmHg 65%
    04:00 +7°C° 0 mm 2 m/s 641 mmHg 65%
    05:00 +7°C° 0 mm 2 m/s 641 mmHg 64%
    06:00 +7°C° 0 mm 2 m/s 641 mmHg 64%
    07:00 +10°C° 0 mm 1 m/s 642 mmHg 56%
    08:00 +13°C° 0 mm 1 m/s 642 mmHg 48%
    09:00 +15°C° 0 mm 1 m/s 643 mmHg 40%
    10:00 +16°C° 0 mm 1 m/s 643 mmHg 37%
    11:00 +18°C° 0 mm 1 m/s 643 mmHg 35%
    12:00 +19°C° 0 mm 1 m/s 644 mmHg 32%
    13:00 +19°C° 0 mm 1 m/s 643 mmHg 34%
    14:00 +19°C° 0 mm 1 m/s 643 mmHg 36%
    15:00 +19°C° 0 mm 1 m/s 643 mmHg 38%
    16:00 +16°C° 0 mm 1 m/s 642 mmHg 47%
    17:00 +13°C° 0 mm 1 m/s 641 mmHg 57%
    18:00 +11°C° 0 mm 1 m/s 641 mmHg 66%
    19:00 +11°C° 0 mm 1 m/s 641 mmHg 67%
    20:00 +10°C° 0 mm 1 m/s 641 mmHg 69%
    21:00 +9°C° 0 mm 2 m/s 641 mmHg 70%
    22:00 +9°C° 0 mm 2 m/s 640 mmHg 71%
    23:00 +9°C° 0 mm 2 m/s 640 mmHg 73%

    20 Octobre, Samedi

    Heure Température Précipitation Vent Pression Humidité
    00:00 +8°C° 0 mm 2 m/s 640 mmHg 74%
    01:00 +8°C° 0 mm 2 m/s 640 mmHg 73%
    02:00 +8°C° 0 mm 2 m/s 639 mmHg 71%
    03:00 +8°C° 0 mm 2 m/s 639 mmHg 69%
    04:00 +8°C° 0 mm 2 m/s 639 mmHg 64%
    05:00 +8°C° 0 mm 2 m/s 639 mmHg 59%
    06:00 +7°C° 0 mm 2 m/s 639 mmHg 54%
    07:00 +10°C° 0 mm 2 m/s 640 mmHg 47%
    08:00 +13°C° 0 mm 1 m/s 640 mmHg 39%
    09:00 +16°C° 0 mm 1 m/s 641 mmHg 32%
    10:00 +18°C° 0 mm 1 m/s 641 mmHg 30%
    11:00 +18°C° 0 mm 2 m/s 641 mmHg 29%
    12:00 +19°C° 0 mm 2 m/s 641 mmHg 27%
    13:00 +19°C° 0 mm 2 m/s 641 mmHg 29%
    14:00 +19°C° 0 mm 2 m/s 641 mmHg 30%
    15:00 +18°C° 0 mm 2 m/s 641 mmHg 31%
    16:00 +16°C° 0 mm 1 m/s 640 mmHg 37%
    17:00 +14°C° 0 mm 1 m/s 640 mmHg 43%
    18:00 +12°C° 0 mm 1 m/s 639 mmHg 49%
    19:00 +12°C° 0 mm 1 m/s 639 mmHg 48%
    20:00 +12°C° 0 mm 1 m/s 639 mmHg 47%
    21:00 +11°C° 0 mm 1 m/s 639 mmHg 46%
    22:00 +11°C° 0 mm 1 m/s 639 mmHg 46%
    23:00 +11°C° 0 mm 1 m/s 639 mmHg 45%

    21 Octobre, Dimanche

    Heure Température Précipitation Vent Pression Humidité
    00:00 +11°C° 0 mm 1 m/s 639 mmHg 45%
    01:00 +10°C° 0 mm 1 m/s 638 mmHg 46%
    02:00 +10°C° 0 mm 1 m/s 638 mmHg 47%
    03:00 +10°C° 0 mm 1 m/s 638 mmHg 47%
    04:00 +10°C° 0 mm 1 m/s 638 mmHg 48%
    05:00 +10°C° 0 mm 1 m/s 638 mmHg 49%
    06:00 +10°C° 0 mm 1 m/s 638 mmHg 50%
    07:00 +12°C° 0 mm 1 m/s 639 mmHg 46%
    08:00 +14°C° 0 mm 1 m/s 640 mmHg 41%
    09:00 +16°C° 0 mm 1 m/s 640 mmHg 37%
    10:00 +18°C° 0 mm 1 m/s 640 mmHg 37%
    11:00 +19°C° 0 mm 1 m/s 640 mmHg 37%
    12:00 +19°C° 0 mm 2 m/s 640 mmHg 36%
    13:00 +19°C° 0 mm 1 m/s 640 mmHg 38%
    14:00 +19°C° 0 mm 1 m/s 640 mmHg 40%
    15:00 +18°C° 0 mm 1 m/s 640 mmHg 41%
    16:00 +16°C° 0 mm 1 m/s 639 mmHg 47%
    17:00 +14°C° 0 mm 1 m/s 639 mmHg 53%
    18:00 +12°C° 0 mm 0 m/s 638 mmHg 59%
    19:00 +13°C° 0 mm 1 m/s 638 mmHg 60%
    20:00 +12°C° 0 mm 1 m/s 639 mmHg 60%
    21:00 +12°C° 0 mm 1 m/s 639 mmHg 61%
    22:00 +12°C° 0 mm 1 m/s 638 mmHg 62%
    23:00 +12°C° 0 mm 1 m/s 638 mmHg 62%

    22 Octobre, Lundi

    Heure Température Précipitation Vent Pression Humidité
    00:00 +11°C° 0 mm 1 m/s 638 mmHg 63%
    01:00 +11°C° 0 mm 1 m/s 638 mmHg 63%
    02:00 +11°C° 0 mm 1 m/s 638 mmHg 63%
    03:00 +11°C° 0 mm 1 m/s 638 mmHg 63%
    04:00 +11°C° 0 mm 1 m/s 638 mmHg 62%
    05:00 +10°C° 0 mm 1 m/s 638 mmHg 62%
    06:00 +10°C° 0 mm 1 m/s 638 mmHg 62%
    07:00 +12°C° 0 mm 1 m/s 639 mmHg 57%
    08:00 +14°C° 0 mm 1 m/s 639 mmHg 52%
    09:00 +15°C° 0 mm 1 m/s 640 mmHg 48%
    10:00 +16°C° 0 mm 1 m/s 640 mmHg 46%
    11:00 +17°C° 0 mm 2 m/s 641 mmHg 45%
    12:00 +18°C° 0 mm 2 m/s 641 mmHg 43%
    13:00 +18°C° 0 mm 2 m/s 641 mmHg 45%
    14:00 +17°C° 0 mm 2 m/s 640 mmHg 47%
    15:00 +17°C° 0 mm 2 m/s 640 mmHg 48%
    16:00 +16°C° 0 mm 1 m/s 640 mmHg 55%
    17:00 +14°C° 0 mm 1 m/s 640 mmHg 61%
    18:00 +12°C° 0 mm 0 m/s 640 mmHg 68%
    19:00 +12°C° 0.1 mm 1 m/s 640 mmHg 67%
    20:00 +12°C° 0.1 mm 1 m/s 640 mmHg 67%
    21:00 +11°C° 0.1 mm 1 m/s 640 mmHg 67%
    22:00 +11°C° 0 mm 1 m/s 640 mmHg 67%
    23:00 +11°C° 0 mm 1 m/s 640 mmHg 67%
    Voir plus